Location: Dana
(41.8364°N, 106.7042°W)
Time: 19:46:38
(UTC+00:00)

Injun/Solrad 3 - Pass Details

Date: 11 May 2026
Orbit: 867 x 989 km, 66.8° (Epoch: 6 June)

Event Time Altitude Azimuth Distance (km) Brightness Sun altitude
Rises 06:31:49 0° 337° (NNW) 3,666 12.1 -29.8°
Reaches altitude 10° 06:35:19 10° 356° (N) 2,733 11.3 -29.9°
Maximum altitude 06:39:34 18° 38° (NE) 2,210 10.3 -30.0°
Drops below altitude 10° 06:43:49 10° 79° (E) 2,748 10.4 -30.1°
Enters shadow 06:46:05 - 93° (E) 3,328 10.7 -30.1°
Sets 06:47:21 0° 98° (E) 3,695 - -30.1°
